UAL2010 KPWM-KEWR

Flight info

Callsign UAL2010
Flight time 0h 56m
Altitude 32000
Route HSKEL3 HANAA FLOSI4
Aircraft B738/M-SDE2E3FGHIRWXY/LB1

Departure

Time 2026-05-04 20:56
Airport Portland International Jetport (KPWM)

Arrival

Time 2026-05-04 21:53
Airport Newark Liberty International Airport (KEWR)
Time Latitude Longitude Altitude Speed Heading
2026-05-04 20:34 43.64659 -70.30894 65 ft 0 kts 353°
2026-05-04 20:50 43.64645 -70.30892 57 ft 2 kts 358°
2026-05-04 20:50 43.64628 -70.30892 63 ft 2 kts
2026-05-04 20:50 43.64612 -70.30895 60 ft 2 kts 16°
2026-05-04 20:50 43.64597 -70.30904 60 ft 2 kts 41°
2026-05-04 20:51 43.64587 -70.30922 56 ft 2 kts 74°
2026-05-04 20:51 43.64585 -70.30940 57 ft 1 kts 91°
2026-05-04 20:51 43.64585 -70.30944 58 ft 0 kts 93°
2026-05-04 20:53 43.64582 -70.30895 61 ft 9 kts 95°
2026-05-04 20:53 43.64572 -70.30765 57 ft 17 kts 95°
2026-05-04 20:53 43.64562 -70.30600 60 ft 17 kts 95°
2026-05-04 20:54 43.64558 -70.30424 57 ft 19 kts 78°
2026-05-04 20:54 43.64587 -70.30266 57 ft 17 kts 84°
2026-05-04 20:54 43.64579 -70.30112 55 ft 16 kts 97°
2026-05-04 20:54 43.64568 -70.29968 52 ft 14 kts 101°
2026-05-04 20:55 43.64494 -70.29914 50 ft 13 kts 178°
2026-05-04 20:55 43.64423 -70.29912 53 ft 12 kts 185°
2026-05-04 20:55 43.64407 -70.29951 52 ft 4 kts 290°
2026-05-04 20:55 43.64410 -70.29993 55 ft 4 kts 272°
2026-05-04 20:56 43.64416 -70.30095 53 ft 39 kts 275°
2026-05-04 20:56 43.64473 -70.30933 59 ft 132 kts 275°
2026-05-04 20:56 43.64563 -70.32520 331 ft 190 kts 275°
2026-05-04 20:56 43.64690 -70.34391 1394 ft 198 kts 275°
2026-05-04 20:57 43.64855 -70.36152 2851 ft 175 kts 275°
2026-05-04 20:57 43.64980 -70.37979 2949 ft 206 kts 274°
2026-05-04 20:57 43.65101 -70.39995 3002 ft 216 kts 274°
2026-05-04 20:57 43.65234 -70.42089 3001 ft 220 kts 274°
2026-05-04 20:58 43.65375 -70.44212 2999 ft 229 kts 274°
2026-05-04 20:58 43.65526 -70.46475 3138 ft 241 kts 274°
2026-05-04 20:58 43.65728 -70.48760 4116 ft 239 kts 280°
2026-05-04 20:58 43.66151 -70.50964 5131 ft 238 kts 284°
2026-05-04 20:59 43.66624 -70.53152 6086 ft 238 kts 284°
2026-05-04 20:59 43.67101 -70.55358 6949 ft 241 kts 284°
2026-05-04 20:59 43.67571 -70.57564 7756 ft 244 kts 284°
2026-05-04 20:59 43.68048 -70.59831 8593 ft 247 kts 284°
2026-05-04 21:00 43.68525 -70.62120 9437 ft 250 kts 285°
2026-05-04 21:00 43.69007 -70.64449 10217 ft 253 kts 285°
2026-05-04 21:00 43.69503 -70.66871 10572 ft 274 kts 284°
2026-05-04 21:00 43.70044 -70.69519 10771 ft 297 kts 285°
2026-05-04 21:01 43.70624 -70.72373 10962 ft 320 kts 285°
2026-05-04 21:01 43.71244 -70.75422 11243 ft 337 kts 285°
2026-05-04 21:01 43.71835 -70.78594 11844 ft 343 kts 278°
2026-05-04 21:01 43.71789 -70.81887 12666 ft 346 kts 262°
2026-05-04 21:02 43.71138 -70.85103 13473 ft 352 kts 252°
2026-05-04 21:02 43.70219 -70.88260 14148 ft 357 kts 250°
2026-05-04 21:02 43.69249 -70.91459 14829 ft 362 kts 250°
2026-05-04 21:02 43.68284 -70.94679 15537 ft 365 kts 251°
2026-05-04 21:03 43.67327 -70.97944 16238 ft 368 kts 251°
2026-05-04 21:03 43.66368 -71.01256 16913 ft 373 kts 252°
2026-05-04 21:03 43.65419 -71.04556 17581 ft 376 kts 252°
2026-05-04 21:03 43.64610 -71.08001 18237 ft 378 kts 258°
2026-05-04 21:04 43.63963 -71.11529 18769 ft 381 kts 259°
2026-05-04 21:04 43.63359 -71.15121 19310 ft 385 kts 260°
2026-05-04 21:04 43.62756 -71.18742 19871 ft 389 kts 260°
2026-05-04 21:04 43.62138 -71.22388 20355 ft 393 kts 260°
2026-05-04 21:05 43.61493 -71.26106 20842 ft 399 kts 260°
2026-05-04 21:05 43.60832 -71.29843 21373 ft 402 kts 260°
2026-05-04 21:05 43.60156 -71.33609 21886 ft 406 kts 260°
2026-05-04 21:05 43.59468 -71.37415 22382 ft 410 kts 260°
2026-05-04 21:06 43.58772 -71.41242 22839 ft 414 kts 260°
2026-05-04 21:06 43.58065 -71.45110 23311 ft 418 kts 260°
2026-05-04 21:06 43.57351 -71.49010 23727 ft 421 kts 260°
2026-05-04 21:06 43.56634 -71.52919 24191 ft 422 kts 260°
2026-05-04 21:07 43.55912 -71.56839 24667 ft 422 kts 260°
2026-05-04 21:07 43.55187 -71.60775 25109 ft 424 kts 260°
2026-05-04 21:07 43.54467 -71.64678 25510 ft 426 kts 260°
2026-05-04 21:07 43.53734 -71.68640 25904 ft 428 kts 260°
2026-05-04 21:08 43.52995 -71.72631 26270 ft 430 kts 260°
2026-05-04 21:08 43.52252 -71.76635 26646 ft 432 kts 260°
2026-05-04 21:09 43.49249 -71.92708 28465 ft 430 kts 260°
2026-05-04 21:09 43.48502 -71.96682 29030 ft 427 kts 261°
2026-05-04 21:09 43.47756 -72.00647 29516 ft 426 kts 261°
2026-05-04 21:10 43.47013 -72.04595 30013 ft 425 kts 261°
2026-05-04 21:10 43.46270 -72.08528 30467 ft 423 kts 261°
2026-05-04 21:10 43.45530 -72.12441 30861 ft 422 kts 261°
2026-05-04 21:10 43.44791 -72.16343 31253 ft 421 kts 261°
2026-05-04 21:11 43.44059 -72.20197 31664 ft 420 kts 261°
2026-05-04 21:11 43.43320 -72.24086 31772 ft 423 kts 261°
2026-05-04 21:11 43.41827 -72.31909 31775 ft 420 kts 261°
2026-05-04 21:12 43.40344 -72.39650 31787 ft 417 kts 261°
2026-05-04 21:12 43.38862 -72.47356 31787 ft 417 kts 261°
2026-05-04 21:13 43.37510 -72.55095 31804 ft 416 kts 264°
2026-05-04 21:13 43.36282 -72.62866 31768 ft 416 kts 264°
2026-05-04 21:14 43.35042 -72.70631 31784 ft 416 kts 264°
2026-05-04 21:14 43.33774 -72.78396 31795 ft 416 kts 263°
2026-05-04 21:15 43.32496 -72.86148 31796 ft 417 kts 263°
2026-05-04 21:15 43.31215 -72.93869 31790 ft 416 kts 263°
2026-05-04 21:16 43.29924 -73.01626 31794 ft 417 kts 263°
2026-05-04 21:16 43.28628 -73.09368 31794 ft 417 kts 263°
2026-05-04 21:17 43.27326 -73.17129 31786 ft 417 kts 263°
2026-05-04 21:17 43.26016 -73.24900 31793 ft 418 kts 263°
2026-05-04 21:18 43.24699 -73.32673 31779 ft 419 kts 263°
2026-05-04 21:18 43.23384 -73.40401 31777 ft 419 kts 263°
2026-05-04 21:19 43.22056 -73.48175 31777 ft 418 kts 263°
2026-05-04 21:19 43.20587 -73.55920 31729 ft 424 kts 255°
2026-05-04 21:20 43.19050 -73.59451 31728 ft 444 kts 234°
2026-05-04 21:20 43.16646 -73.62198 31778 ft 460 kts 219°
2026-05-04 21:20 43.13720 -73.64104 31787 ft 473 kts 206°
2026-05-04 21:20 43.10556 -73.65438 31780 ft 476 kts 203°
2026-05-04 21:21 43.04187 -73.67976 31777 ft 476 kts 203°
2026-05-04 21:21 42.97845 -73.70579 31798 ft 475 kts 204°
2026-05-04 21:22 42.91536 -73.73238 31801 ft 474 kts 204°
2026-05-04 21:22 42.85239 -73.75899 31770 ft 473 kts 204°
2026-05-04 21:23 42.78947 -73.78547 31795 ft 473 kts 204°
2026-05-04 21:23 42.72712 -73.81181 31792 ft 472 kts 205°
2026-05-04 21:24 42.66471 -73.83977 31784 ft 472 kts 205°
2026-05-04 21:24 42.60234 -73.86807 31805 ft 472 kts 205°
2026-05-04 21:25 42.53991 -73.89615 31809 ft 473 kts 205°
2026-05-04 21:25 42.47732 -73.92410 31794 ft 474 kts 205°
2026-05-04 21:26 42.42523 -73.94729 31824 ft 474 kts 205°
2026-05-04 21:26 42.36300 -73.97496 31834 ft 474 kts 205°
2026-05-04 21:27 42.30017 -74.00286 31807 ft 474 kts 204°
2026-05-04 21:27 42.23749 -74.03062 31827 ft 474 kts 204°
2026-05-04 21:28 42.17474 -74.05835 31840 ft 474 kts 204°
2026-05-04 21:28 42.11232 -74.08588 31825 ft 475 kts 204°
2026-05-04 21:29 42.04952 -74.11358 31824 ft 476 kts 204°
2026-05-04 21:29 41.98671 -74.14110 31835 ft 475 kts 204°
2026-05-04 21:30 41.92373 -74.16867 31856 ft 475 kts 204°
2026-05-04 21:30 41.86081 -74.19618 31846 ft 474 kts 204°
2026-05-04 21:31 41.76676 -74.23722 31856 ft 474 kts 204°
2026-05-04 21:32 41.70404 -74.26456 31855 ft 474 kts 204°
2026-05-04 21:32 41.64117 -74.29196 31847 ft 475 kts 204°
2026-05-04 21:33 41.57863 -74.31922 31686 ft 478 kts 204°
2026-05-04 21:33 41.54720 -74.33291 31477 ft 467 kts 204°
2026-05-04 21:33 41.51670 -74.34606 31190 ft 455 kts 204°
2026-05-04 21:33 41.48672 -74.35892 30839 ft 449 kts 203°
2026-05-04 21:34 41.45697 -74.37171 30494 ft 448 kts 204°
2026-05-04 21:34 41.42730 -74.38452 30160 ft 450 kts 204°
2026-05-04 21:34 41.39766 -74.39733 29801 ft 447 kts 204°
2026-05-04 21:34 41.36817 -74.41005 29411 ft 443 kts 204°
2026-05-04 21:35 41.33918 -74.42254 28979 ft 439 kts 203°
2026-05-04 21:35 41.31036 -74.43500 28594 ft 436 kts 203°
2026-05-04 21:35 41.28156 -74.44750 28212 ft 433 kts 204°
2026-05-04 21:35 41.25293 -74.45994 27829 ft 431 kts 204°
2026-05-04 21:36 41.22445 -74.47233 27461 ft 428 kts 204°
2026-05-04 21:36 41.19657 -74.48447 27094 ft 426 kts 204°
2026-05-04 21:36 41.16840 -74.49672 26731 ft 424 kts 204°
2026-05-04 21:36 41.14042 -74.50889 26360 ft 421 kts 204°
2026-05-04 21:37 41.11258 -74.52099 26005 ft 419 kts 204°
2026-05-04 21:37 41.08491 -74.53303 25647 ft 417 kts 204°
2026-05-04 21:37 41.05732 -74.54501 25314 ft 415 kts 203°
2026-05-04 21:37 41.03032 -74.55675 24966 ft 413 kts 204°
2026-05-04 21:38 41.00274 -74.56871 24575 ft 411 kts 204°
2026-05-04 21:38 40.97551 -74.58054 24019 ft 412 kts 204°
2026-05-04 21:38 40.94872 -74.59217 23364 ft 408 kts 204°
2026-05-04 21:38 40.92185 -74.60383 22395 ft 403 kts 204°
2026-05-04 21:39 40.89540 -74.61530 21509 ft 398 kts 203°
2026-05-04 21:39 40.86906 -74.62645 20636 ft 394 kts 199°
2026-05-04 21:39 40.84170 -74.62999 19813 ft 401 kts 180°
2026-05-04 21:39 40.81442 -74.62129 19067 ft 405 kts 160°
2026-05-04 21:40 40.79070 -74.60146 18342 ft 407 kts 140°
2026-05-04 21:40 40.77286 -74.57235 17528 ft 407 kts 120°
2026-05-04 21:40 40.76316 -74.53764 16720 ft 404 kts 100°
2026-05-04 21:40 40.76241 -74.50139 15934 ft 398 kts 79°
2026-05-04 21:41 40.77060 -74.46713 15171 ft 387 kts 58°
2026-05-04 21:41 40.78626 -74.43914 14431 ft 375 kts 41°
2026-05-04 21:41 40.80475 -74.41539 13888 ft 364 kts 38°
2026-05-04 21:41 40.82313 -74.39303 13325 ft 356 kts 38°
2026-05-04 21:42 40.84127 -74.37122 12727 ft 348 kts 38°
2026-05-04 21:42 40.85911 -74.34990 12153 ft 342 kts 38°
2026-05-04 21:42 40.87663 -74.32911 11588 ft 335 kts 38°
2026-05-04 21:42 40.89391 -74.30871 11042 ft 330 kts 38°
2026-05-04 21:43 40.91100 -74.28865 10508 ft 325 kts 38°
2026-05-04 21:43 40.92769 -74.26930 9977 ft 320 kts 38°
2026-05-04 21:43 40.94441 -74.25007 9415 ft 316 kts 38°
2026-05-04 21:43 40.96103 -74.23110 8881 ft 312 kts 38°
2026-05-04 21:44 40.97731 -74.21265 8448 ft 305 kts 37°
2026-05-04 21:44 40.99335 -74.19463 8000 ft 299 kts 38°
2026-05-04 21:44 41.00786 -74.17511 7539 ft 298 kts 56°
2026-05-04 21:44 41.01510 -74.15006 7129 ft 294 kts 84°
2026-05-04 21:45 41.01323 -74.12404 6896 ft 278 kts 113°
2026-05-04 21:45 41.00324 -74.10344 6710 ft 259 kts 143°
2026-05-04 21:45 40.98804 -74.09253 6458 ft 243 kts 173°
2026-05-04 21:45 40.97149 -74.09295 6255 ft 238 kts 195°
2026-05-04 21:46 40.95532 -74.09755 6017 ft 241 kts 197°
2026-05-04 21:46 40.93886 -74.10199 5763 ft 244 kts 188°
2026-05-04 21:46 40.92210 -74.09765 5505 ft 254 kts 158°
2026-05-04 21:46 40.90871 -74.08228 5259 ft 261 kts 128°
2026-05-04 21:47 40.90163 -74.06026 5031 ft 260 kts 113°
2026-05-04 21:47 40.89225 -74.04043 4757 ft 251 kts 143°
2026-05-04 21:47 40.87733 -74.03008 4482 ft 238 kts 174°
2026-05-04 21:47 40.86153 -74.03153 4158 ft 224 kts 204°
2026-05-04 21:48 40.84936 -74.04348 3732 ft 220 kts 232°
2026-05-04 21:48 40.84050 -74.06014 3332 ft 220 kts 236°
2026-05-04 21:48 40.83059 -74.07546 2868 ft 222 kts 214°
2026-05-04 21:48 40.81720 -74.08448 2577 ft 216 kts 209°
2026-05-04 21:49 40.80398 -74.09346 2300 ft 205 kts 210°
2026-05-04 21:49 40.79178 -74.10142 2014 ft 190 kts 208°
2026-05-04 21:49 40.78048 -74.10861 1780 ft 171 kts 209°
2026-05-04 21:49 40.77032 -74.11510 1561 ft 156 kts 209°
2026-05-04 21:50 40.76703 -74.11720 1464 ft 152 kts 209°
2026-05-04 21:50 40.75517 -74.12476 1287 ft 127 kts 210°
2026-05-04 21:50 40.74691 -74.13001 1084 ft 129 kts 211°
2026-05-04 21:51 40.73890 -74.13529 919 ft 131 kts 210°
2026-05-04 21:51 40.73062 -74.14046 819 ft 133 kts 210°
2026-05-04 21:51 40.72234 -74.14591 619 ft 132 kts 210°
2026-05-04 21:51 40.71412 -74.15104 389 ft 127 kts 208°
2026-05-04 21:52 40.70636 -74.15597 225 ft 119 kts 207°
2026-05-04 21:52 40.69898 -74.16066 84 ft 118 kts 206°
2026-05-04 21:52 40.69169 -74.16530 26 ft 108 kts 206°
2026-05-04 21:52 40.68604 -74.16885 19 ft 68 kts 206°
2026-05-04 21:53 40.68315 -74.17110 20 ft 31 kts 223°